STARLINK-32336

Last updated on Sun Oct 06 2024 00:02:04 GMT+0000 (Coordinated Universal Time)

1 61004U 24158Q 24279.58335648 -.01465274 00000+0 -37642-1 0 9990 2 61004 53.1592 327.3159 0001163 60.8200 59.5239 15.41777663 6001
UTC large
Height (km)
Speed (km/s)
/
Latitude / Longitude
Inclination (degrees)
Orbital Period (minutes)
Azimuth
Elevation
Range (km)
Doppler Factor

Next 0 passes for location: London (51.5072 / 0.1276)

Sorry there are no passes over London.